This demonstration page uses our WeatherBlox Daily Observations layout. Learn more.

40.92945, -100.16068

Hourly Observations for November 7, 2020

Temp ( °F °C ) Dew Point ( °F °C ) Humidity (%) Winds ( mph kmh ) Pressure ( in mb ) Visibility ( mi km ) Precip ( " mm )
12:15 am 00:15 Clear 60 15.7 51 10.3 70 70 S 15 24 29.79 1009 10 16.0934 0 0
12:35 am 00:35 Clear 60 15.7 51 10.3 70 70 S 14 22 29.79 1009 10 16.0934 0 0
12:55 am 00:55 Clear 60 15.5 51 10.3 71 71 S 15 24 29.79 1009 10 16.0934 0 0
1:15 am 01:15 Clear 59 15.1 51 10.3 73 73 S 14 22 29.79 1009 10 16.0934 0 0
1:35 am 01:35 Clear 59 15 50 10.2 73 73 S 14 22 29.79 1009 10 16.0934 0 0
1:55 am 01:55 Clear 59 14.8 50 10.1 74 74 S 17 28 29.78 1008 10 16.0934 0 0
2:15 am 02:15 Clear 59 14.9 50 10 73 73 S 18 30 29.78 1008 10 16.0934 0 0
2:35 am 02:35 Clear 59 15 49 9.7 71 71 S 16 26 29.78 1008 10 16.0934 0 0
2:55 am 02:55 Clear 58 14.7 49 9.5 71 71 S 17 28 29.78 1008 10 16.0934 0 0
3:15 am 03:15 Clear 58 14.5 49 9.2 71 71 S 20 31 29.77 1008 10 16.0934 0 0
3:35 am 03:35 Clear 58 14.3 48 9 71 71 S 20 31 29.77 1008 10 16.0934 0 0
3:55 am 03:55 Clear 57 14 48 9 72 72 S 21 33 29.78 1008 10 16.0934 0 0
4:15 am 04:15 Clear 56 13.5 48 9 74 74 S 16 26 29.78 1008 10 16.0934 0 0
4:35 am 04:35 Clear 55 13 48 9 77 77 S 18 30 29.77 1008 10 16.0934 0 0
4:55 am 04:55 Clear 55 12.7 48 9 78 78 S 16 26 29.78 1008 10 16.0934 0 0
5:15 am 05:15 Clear 55 12.6 48 9.1 79 79 S 18 30 29.78 1008 10 16.0934 0 0
5:35 am 05:35 Clear 55 12.5 49 9.2 80 80 S 16 26 29.78 1008 10 16.0934 0 0
5:55 am 05:55 Clear 54 12.2 48 9.1 82 82 S 17 28 29.78 1009 10 16.0934 0 0
6:15 am 06:15 Clear 54 12 49 9.2 83 83 S 18 30 29.77 1008 10 16.0934 0 0
6:35 am 06:35 Clear 54 12 49 9.2 83 83 S 13 20 29.78 1009 10 16.0934 0 0
6:55 am 06:55 Clear 53 11.5 48 9.1 85 85 S 15 24 29.79 1009 10 16.0934 0 0
7:15 am 07:15 Clear 53 11.6 49 9.3 86 86 S 15 24 29.79 1009 10 16.0934 0 0
7:35 am 07:35 Sunny 54 12 49 9.2 83 83 S 17 28 29.79 1009 10 16.0934 0 0
7:55 am 07:55 Sunny 54 12 49 9.2 83 83 S 15 24 29.79 1009 10 16.0934 0 0
8:15 am 08:15 Sunny 55 12.5 49 9.5 82 82 S 16 26 29.8 1009 10 16.0934 0 0
8:35 am 08:35 Sunny 55 13 49 9.5 79 79 S 16 26 29.79 1009 10 16.0934 0 0
8:55 am 08:55 Sunny 57 13.9 49 9.5 75 75 S 18 30 29.79 1009 10 16.0934 0 0
9:15 am 09:15 Sunny 58 14.7 49 9.6 72 72 SSW 16 26 29.78 1008 10 16.0934 0 0
9:35 am 09:35 Sunny 60 15.4 49 9.6 69 69 S 18 30 29.76 1008 10 16.0934 0 0
9:55 am 09:55 Sunny 61 16.2 49 9.7 66 66 S 20 31 29.75 1007 10 16.0934 0 0
10:15 am 10:15 Sunny 63 17.3 49 9.3 60 60 S 21 33 29.73 1007 10 16.0934 0 0
10:35 am 10:35 Sunny 66 18.7 49 9.2 54 54 S 23 37 29.7 1006 10 16.0934 0 0
10:55 am 10:55 Sunny 67 19.6 48 9.1 51 51 S 28 44 29.69 1005 10 16.0934 0 0
11:15 am 11:15 Sunny 69 20.6 48 8.9 47 47 S 25 41 29.68 1005 10 16.0934 0 0
11:35 am 11:35 Sunny 71 21.7 47 8.6 43 43 S 24 39 29.66 1004 10 16.0934 0 0
11:55 am 11:55 Sunny 72 22.3 47 8.3 41 41 S 23 37 29.65 1004 10 16.0934 0 0
12:15 pm 12:15 Sunny 73 22.9 47 8.1 39 39 S 26 43 29.63 1003 10 16.0934 0 0
12:35 pm 12:35 Sunny 74 23.6 47 8.6 38 38 S 25 41 29.61 1003 10 16.0934 0 0
12:55 pm 12:55 Sunny 75 23.9 47 8.3 37 37 S 25 41 29.59 1002 10 16.0934 0 0
1:15 pm 13:15 Sunny 75 23.7 47 8.6 38 38 S 26 43 29.59 1002 10 16.0934 0 0
1:35 pm 13:35 Sunny 75 24 48 8.8 38 38 S 29 46 29.57 1001 10 16.0934 0 0
1:55 pm 13:55 Sunny 76 24.6 47 8.6 36 36 S 29 46 29.56 1001 10 16.0934 0 0
2:15 pm 14:15 Sunny 77 24.9 46 7.5 33 33 S 33 54 29.54 1000 10 16.0934 0 0
2:35 pm 14:35 Sunny 78 25.5 46 7.5 32 32 S 35 56 29.54 1000 10 16.0934 0 0
2:55 pm 14:55 Sunny 77 25.2 45 7.4 32 32 S 33 54 29.54 1000 10 16.0934 0 0
3:15 pm 15:15 Sunny 78 25.3 44 6.6 30 30 S 29 46 29.53 1000 7 11.26538 0 0
3:35 pm 15:35 Sunny 77 25.1 45 7 31 31 S 35 56 29.52 1000 7 11.26538 0 0
3:55 pm 15:55 Sunny 76 24.4 44 6.9 33 33 S 30 48 29.53 1000 10 16.0934 0 0
4:15 pm 16:15 Sunny 76 24.2 44 6.9 33 33 S 26 43 29.54 1000 10 16.0934 0 0
4:35 pm 16:35 Sunny 74 23.5 45 7.1 35 35 S 26 43 29.54 1000 10 16.0934 0 0
4:55 pm 16:55 Sunny 73 22.9 45 7.1 36 36 S 24 39 29.54 1000 10 16.0934 0 0
5:15 pm 17:15 Sunny 72 22.2 46 7.5 39 39 SSE 22 35 29.55 1001 10 16.0934 0 0
5:35 pm 17:35 Clear 71 21.5 46 8 42 42 S 22 35 29.56 1001 10 16.0934 0 0
5:55 pm 17:55 Clear 70 21.2 46 8 43 43 S 25 41 29.57 1001 10 16.0934 0 0
6:15 pm 18:15 Clear 70 21 47 8.1 44 44 SSE 21 33 29.57 1002 10 16.0934 0 0
6:35 pm 18:35 Clear 69 20.3 47 8.6 47 47 SSE 21 33 29.58 1002 10 16.0934 0 0
6:55 pm 18:55 Clear 68 20.1 47 8.5 47 47 SSE 23 37 29.59 1002 10 16.0934 0 0
7:15 pm 19:15 Clear 68 20 47 8.5 48 48 S 25 41 29.59 1002 10 16.0934 0 0
7:35 pm 19:35 Clear 67 19.7 47 8.6 49 49 SSE 25 41 29.6 1002 10 16.0934 0 0
7:55 pm 19:55 Clear 66 19.1 48 8.7 51 51 SSE 23 37 29.6 1002 10 16.0934 0 0
8:15 pm 20:15 Clear 66 18.7 49 9.7 56 56 SSE 24 39 29.6 1003 10 16.0934 0 0
8:35 pm 20:35 Clear 65 18.5 50 9.8 57 57 SSE 23 37 29.61 1003 10 16.0934 0 0
8:55 pm 20:55 Clear 64 18 50 10 60 60 SSE 26 43 29.61 1003 10 16.0934 0 0
9:15 pm 21:15 Clear 64 17.7 51 10.3 62 62 SSE 26 43 29.61 1003 10 16.0934 0 0
9:35 pm 21:35 Clear 63 17.4 51 10.3 63 63 SSE 20 31 29.63 1003 10 16.0934 0 0
9:55 pm 21:55 Clear 63 17.2 51 10.5 65 65 SSE 22 35 29.63 1003 10 16.0934 0 0
10:15 pm 22:15 Clear 63 17.1 51 10.5 65 65 SSE 23 37 29.62 1003 10 16.0934 0 0
10:35 pm 22:35 Clear 62 16.8 51 10.5 67 67 SSE 21 33 29.62 1003 10 16.0934 0 0
10:55 pm 22:55 Clear 62 16.8 51 10.5 67 67 S 22 35 29.62 1003 10 16.0934 0 0
11:15 pm 23:15 Clear 62 16.7 51 10.5 67 67 S 25 41 29.62 1003 10 16.0934 0 0
11:35 pm 23:35 Clear 62 16.5 51 10.5 68 68 S 25 41 29.62 1003 10 16.0934 0 0
11:55 pm 23:55 Clear 61 16.3 51 10.6 69 69 S 22 35 29.61 1003 10 16.0934 0 0

Powered by AerisWeather